{"data":{"norad_id":48142,"epoch":"2026-05-25T00:32:32.280576Z","epoch_age_seconds":87179,"freshness":"FRESH","line1":"1 48142U 21027BC  26145.02259584 -.00078259  00000+0 -25103-2 0  9999","line2":"2 48142  53.1590 158.0165 0003435  57.1383 302.9948 15.32023758284377","mean_motion":15.32023758,"eccentricity":0.0003435,"inclination_deg":53.159,"raan_deg":158.0165,"arg_perigee_deg":57.1383,"mean_anomaly_deg":302.9948,"bstar":-0.0025103,"rev_number":28437,"period_min":93.993320435178,"perigee_km":467.42280164698,"apogee_km":472.12731723181,"semimajor_km":6847.9120594394,"source":"CELESTRAK","updated_at":"2026-05-25T13:38:16.650847Z"}}